Home   Weather   Mutsamudu   Past weeks
Flag for Comoros

Past Weather in Mutsamudu, Comoros — Yesterday and Last 2 Weeks

Now
81 °F

Passing clouds.


Feels Like: 85 °F
Forecast: 80 / 76 °F
Wind: 9 mph from Southwest

Location: Dzaoudzi / Pamanzi Mayotte

Current Time: Oct 20, 2019 at 8:09:37 am

Latest Report: Oct 20, 2019 at 7:30 am


Visibility: N/A

Pressure: 29.98 "Hg

Humidity: 79%

Dew Point: 73 °F

Location of MutsamuduLocation

Past Weather in Mutsamudu — Graph

°F

Mutsamudu Temperature Yesterday

Maximum temperature yesterday: 88 °F (at 12:00 pm)
Minimum temperature yesterday: 75 °F (at 12:00 am)
Average temperature yesterday: 81 °F

High & Low Weather Summary for the Past Weeks

 TemperatureHumidityPressure
High90 °F (Oct 6, 1:00 pm)100% (Oct 19, 4:00 am)30.01 "Hg (Oct 19, 4:00 am)
Low73 °F (Oct 9, 5:30 am)59% (Oct 12, 12:30 pm)29.86 "Hg (Oct 11, 3:00 pm)
Average81 °F79%29.93 "Hg
* Reported Oct 5 7:00 am — Oct 20 7:00 am, Mutsamudu. Weather by CustomWeather, © 2019

Note: Actual official high and low records may vary slightly from our data, if they occured in-between our weather recording intervals... More about our weather records

Advertising

Mutsamudu Weather History for the Previous 24 Hours

Scroll right to see more
 ConditionsComfort  
Time TempWeatherWind HumidityBarometerVisibility
7:00 am
Sun, Oct 20
79 °FPassing clouds.10 mph89%29.98 "HgN/A
6:30 am77 °FPartly sunny.9 mph89%29.95 "HgN/A
6:00 am75 °FPassing clouds.6 mph94%29.95 "HgN/A
5:30 am75 °FPassing clouds.2 mph94%29.95 "HgN/A
5:00 am75 °FPassing clouds.2 mph94%29.95 "HgN/A
4:30 am75 °FClear.2 mph94%29.92 "Hg10 mi
4:00 am75 °FPassing clouds.3 mph94%29.92 "HgN/A
3:30 am75 °FPassing clouds.6 mph94%29.92 "HgN/A
3:00 am77 °FClear.6 mph94%29.92 "Hg10 mi
2:30 am75 °FPassing clouds.3 mph94%29.92 "HgN/A
2:00 am77 °FPassing clouds.1 mph89%29.92 "HgN/A
1:30 am77 °FPassing clouds.No wind89%29.92 "HgN/A
1:00 am77 °FClear.3 mph89%29.92 "Hg10 mi
12:30 am75 °FClear.3 mph94%29.92 "Hg10 mi
12:00 am75 °FClear.5 mph94%29.92 "Hg10 mi
11:30 pm
Sat, Oct 19
77 °FClear.5 mph89%29.92 "Hg10 mi
11:00 pm77 °FPassing clouds.5 mph89%29.95 "HgN/A
10:30 pm77 °FClear.3 mph89%29.95 "Hg10 mi
10:00 pm77 °FClear.5 mph89%29.92 "Hg10 mi
9:30 pm79 °FClear.6 mph84%29.95 "Hg10 mi
9:00 pm79 °FClear.6 mph84%29.92 "Hg10 mi
8:30 pm77 °FClear.No wind83%29.92 "Hg10 mi
8:00 pm79 °FClear.1 mph79%29.92 "Hg10 mi
7:30 pm79 °FClear.2 mph84%29.92 "Hg10 mi
7:00 pm79 °FClear.3 mph84%29.92 "Hg10 mi
6:30 pm81 °FClear.3 mph74%29.92 "Hg10 mi
6:00 pm81 °FClear.6 mph79%29.92 "Hg10 mi
5:30 pm82 °FSunny.6 mph74%29.92 "Hg10 mi
5:00 pm84 °FSunny.6 mph70%29.89 "Hg10 mi
4:30 pm84 °FSunny.7 mph70%29.89 "Hg10 mi
4:00 pm86 °FSunny.8 mph66%29.89 "Hg10 mi
3:30 pm86 °FPassing clouds.8 mph66%29.89 "HgN/A
3:00 pm86 °FSunny.9 mph66%29.89 "Hg10 mi
2:30 pm88 °FPassing clouds.9 mph62%29.89 "HgN/A
2:00 pm86 °FPassing clouds.9 mph66%29.89 "HgN/A
1:30 pm86 °FPassing clouds.9 mph66%29.92 "HgN/A
1:00 pm86 °FScattered clouds.10 mph66%29.92 "HgN/A
12:30 pm88 °FScattered clouds.12 mph66%29.92 "HgN/A
12:00 pm88 °FPassing clouds.12 mph66%29.95 "HgN/A
11:30 am86 °FPassing clouds.12 mph70%29.95 "HgN/A
11:00 am86 °FSunny.9 mph70%29.95 "Hg10 mi
10:30 am86 °FSunny.10 mph70%29.95 "Hg10 mi
10:00 am86 °FPassing clouds.8 mph70%29.95 "HgN/A
9:30 am86 °FSunny.7 mph70%29.95 "Hg10 mi
9:00 am84 °FPassing clouds.6 mph74%29.98 "HgN/A
8:30 am84 °FSunny.5 mph74%29.95 "Hg10 mi
8:00 am82 °FPassing clouds.6 mph74%29.95 "HgN/A
Weather by CustomWeather, © 2019

See weather overview